Location: Le Domaine
(47.0333°N, 76.5361°W)
Time: 08:41:54
(UTC-05:00)

Vanguard 1 - Visible Passes

Search period start: 21 November 2019 00:00
Search period end: 01 December 2019 00:00
Orbit: 652 x 3831 km, 34.2° (Epoch: 20 November)

Date Brightness Start Highest point End Pass type
(mag) Time Alt. Az. Time Alt. Az. Time Alt. Az.
23 Nov 14.4 06:12:28 10° SSE 06:17:35 12° SSE 06:21:58 10° SE visible
24 Nov 14.2 06:29:19 10° S 06:38:34 17° SSE 06:45:34 10° ESE visible
25 Nov 13.9 06:47:53 10° SSW 06:59:34 22° SSE 07:07:41 10° ESE visible
26 Nov 14.4 04:53:44 10° SSE 04:58:19 11° SE 05:02:26 10° SE visible
27 Nov 14.2 05:09:05 10° S 05:19:16 17° SE 05:27:18 10° ESE visible
28 Nov 14.0 05:27:00 10° S 05:40:13 22° SSE 05:49:54 10° ESE visible
29 Nov 13.8 05:45:57 10° SSW 06:01:12 27° SSE 06:11:43 10° ESE visible
30 Nov 14.3 03:49:54 10° SSE 03:59:28 15° SE 04:07:39 10° ESE visible
30 Nov 13.6 06:05:33 10° SSW 06:22:12 33° SSE 06:33:09 10° E visible
